Location: Vibo Valentia
(38.6670°N, 16.1000°E)
Time: 11:24:24
(UTC+02:00)

STARLINK-1353 - Pass Details

Date: 03 October 2020
Orbit: 530 x 533 km, 53.0° (Epoch: 22 October)

Event Time Altitude Azimuth Distance (km) Brightness Sun altitude
Exits shadow 05:27:37 12° 328° (NNW) 1,673 5.8 -17.6°
Maximum altitude 05:28:48 13° 346° (NNW) 1,601 5.9 -17.3°
Drops below altitude 10° 05:30:44 10° 15° (NNE) 1,786 6.5 -17.0°
Sets 05:34:04 0° 44° (NE) 2,679 8.0 -16.3°
